Weather History for Tucumcari, NM

Change the Weather History Date:

Sunday, January 6, 2013

  Actual Average Record
Temperature  
Mean Temperature 33 °F -  
Max Temperature 51 °F 52 °F 76 °F (1956)
Min Temperature 15 °F 24 °F -2 °F (1913)
Degree Days  
Heating Degree Days 32    
Moisture  
Dew Point 16 °F    
Average Humidity 54    
Maximum Humidity 82    
Minimum Humidity 23    
Precipitation  
Precipitation 0.00 in - - ()
Sea Level Pressure  
Sea Level Pressure 30.32 in    
Wind  
Wind Speed 6 mph (SW)    
Max Wind Speed 16 mph    
Max Gust Speed 22 mph    
Visibility 10 miles    
Events      
Averages and records for this station are not official NWS values.
T = Trace of Precipitation, MM = Missing Value Source: NWS Daily Summary

Daily Weather History Graph

Daily Weather History Graph

Search for Another Location

Airport:

Trip Planner

Search our weather history database for the weather conditions in past years. The results will help you decide how hot, cold, wet, or windy it might be!

Date:

Astronomy

Jan. 06, 2013 Rise Set
Actual Time 7:03 AM MST 4:57 PM MST
Civil Twilight 6:35 AM MST 5:25 PM MST
Nautical Twilight 6:03 AM MST 5:57 PM MST
Astronomical Twilight 5:33 AM MST 6:27 PM MST
Moon 1:25 AM MST (1/6) 12:22 PM MST (1/6)
Length of Visible Light 10h 50m
Length of Day
9h 54m
Waning Crescent, 32% of the Moon is Illuminated
Jan 6
Waning Crescent
Jan 11
New
Jan 18
First Quarter
Jan 26
Full
Feb 3
Last Quarter

Hourly Weather History & Observations

Time (MST) Temp. Windchill Dew Point Humidity Pressure Visibility Wind Dir Wind Speed Gust Speed Precip Events Conditions
12:53 AM 21.9 °F - 16.0 °F 78% 30.40 in 10.0 mi Calm Calm - N/A   Clear
1:53 AM 19.9 °F - 15.1 °F 81% 30.41 in 10.0 mi Calm Calm - N/A   Clear
2:53 AM 21.0 °F 14.6 °F 16.0 °F 81% 30.40 in 10.0 mi WSW 4.6 mph - N/A   Clear
3:53 AM 19.0 °F 10.0 °F 14.0 °F 81% 30.41 in 10.0 mi West 6.9 mph - N/A   Clear
5:53 AM 18.0 °F 12.7 °F 12.9 °F 81% 30.44 in 10.0 mi WSW 3.5 mph - N/A   Clear
6:53 AM 15.1 °F 7.7 °F 10.0 °F 80% 30.47 in 10.0 mi WSW 4.6 mph - N/A   Clear
7:53 AM 21.9 °F - 17.1 °F 82% 30.46 in 10.0 mi Calm Calm - N/A   Clear
8:53 AM 28.9 °F 21.1 °F 21.0 °F 72% 30.45 in 10.0 mi West 8.1 mph - N/A   Clear
9:53 AM 36.0 °F 31.1 °F 23.0 °F 59% 30.43 in 10.0 mi West 5.8 mph - N/A   Clear
10:53 AM 43.0 °F 36.8 °F 21.0 °F 42% 30.38 in 10.0 mi SW 11.5 mph - N/A   Clear
11:53 AM 46.0 °F 39.3 °F 19.0 °F 34% 30.33 in 10.0 mi SW 16.1 mph 21.9 mph N/A   Clear
12:53 PM 48.0 °F - 18.0 °F 30% 30.29 in 10.0 mi SW 13.8 mph - N/A   Clear
1:53 PM 50.0 °F - 16.0 °F 26% 30.25 in 10.0 mi SW 12.7 mph 19.6 mph N/A   Clear
2:53 PM 51.1 °F - 14.0 °F 23% 30.23 in 10.0 mi SSW 13.8 mph 19.6 mph N/A   Clear
3:53 PM 50.0 °F - 14.0 °F 24% 30.22 in 10.0 mi SSW 11.5 mph - N/A   Clear
4:53 PM 43.0 °F 36.8 °F 15.1 °F 32% 30.25 in 10.0 mi SW 11.5 mph - N/A   Clear
5:53 PM 39.0 °F 31.8 °F 15.1 °F 38% 30.25 in 10.0 mi SW 11.5 mph - N/A   Clear
6:53 PM 39.0 °F 31.4 °F 15.1 °F 38% 30.27 in 10.0 mi SW 12.7 mph - N/A   Clear
7:53 PM 34.0 °F 25.5 °F 16.0 °F 48% 30.26 in 10.0 mi SW 11.5 mph - N/A   Clear
8:53 PM 34.0 °F 25.0 °F 16.0 °F 48% 30.23 in 10.0 mi SW 12.7 mph - N/A   Clear
9:53 PM 36.0 °F 28.5 °F 17.1 °F 46% 30.20 in 10.0 mi SSW 10.4 mph - N/A   Clear
10:53 PM 34.0 °F 25.5 °F 18.0 °F 52% 30.17 in 10.0 mi SW 11.5 mph - N/A   Clear
11:53 PM 33.1 °F 27.7 °F 19.0 °F 56% 30.17 in 10.0 mi SW 5.8 mph - N/A   Clear